Location: Les Salelles
(44.4192°N, 4.1044°E)
Time: 10:58:09
(UTC+00:00)

ERS-2 - Pass Details

Date: 20 January 2021
Orbit: 492 x 497 km, 98.6° (Epoch: 28 February)

Event Time Altitude Azimuth Distance (km) Brightness Sun altitude
Exits shadow 17:42:05 11° 33° (NNE) 1,649 4.3 -11.6°
Maximum altitude 17:45:19 35° 99° (E) 820 2.7 -12.2°
Drops below altitude 10° 17:48:39 10° 166° (SSE) 1,681 4.8 -12.8°
Sets 17:50:50 0° 176° (S) 2,557 5.9 -13.1°
